Flag for Mexico Weather past 2 weeks in Mexicali, Baja California, Mexico

Now
86 °F

Sunny.


Feels Like: 84 °F
Forecast: 85 / 109 °F
Wind: 5 mph from Northwest

Location: Imperial County Airport

Current Time: Jul 29, 2014 at 8:16:17 AM

Latest Report: Jul 29, 2014 at 6:53 AM


Visibility: 10 mi

Pressure: 29.88 "Hg

Humidity: 33%

Dew point: 54 °F

Location of MexicaliLocation

Historic Weather in Mexicali — Graph

°F

Mexicali temperature yesterday

Maximum temperature yesterday: 107 °F (at 4:53 PM)
Minimum temperature yesterday: 84 °F (at 1:53 AM)
Average temperature yesterday: 96 °F

Past Weeks' High & Low Weather Summary

 TemperatureHumidityPressure
High116 °F (Jul 23, 5:53 PM)77% (Jul 15, 5:53 AM)29.97 "Hg (Jul 15, 5:53 AM)
Low73 °F (Jul 22, 5:53 AM)6% (Jul 17, 2:53 PM)29.58 "Hg (Jul 24, 5:53 PM)
Average94 °F31%29.80 "Hg
* Reported Jul 14 6:53 AM — Jul 29 6:53 AM, Mexicali, Weather by CustomWeather, © 2014

Note: Actual official high and low records may vary slightly from our data, if they occured in-between our weather recording intervals... More about our weather records

Advertising

Mexicali weather history for previous 24 hours

 ConditionsComfort  
Time TempWeatherWind HumidityBarometerVisibility
6:53 AM
Jul 29
86 °FSunny.5 mph33%29.88 "Hg10 mi
5:53 AM83 °FClear.5 mph40%29.87 "Hg10 mi
4:53 AM85 °FClear.6 mph36%29.87 "Hg10 mi
3:53 AM86 °FClear.3 mph33%29.87 "Hg10 mi
2:53 AM88 °FClear.6 mph30%29.86 "Hg10 mi
1:53 AM90 °FClear.8 mph28%29.86 "Hg10 mi
12:53 AM91 °FClear.10 mph30%29.86 "Hg10 mi
11:53 PM
Jul 28
93 °FClear.13 mph27%29.86 "Hg10 mi
10:53 PM92 °FClear.12 mph30%29.86 "Hg10 mi
9:53 PM95 °FClear.12 mph26%29.86 "Hg10 mi
8:53 PM100 °FClear.9 mph22%29.84 "Hg10 mi
7:53 PM104 °FPassing clouds.5 mph22%29.81 "Hg10 mi
6:53 PM105 °FPassing clouds.6 mph21%29.80 "Hg10 mi
5:53 PM106 °FPassing clouds.7 mph21%29.80 "Hg10 mi
4:53 PM107 °FScattered clouds.3 mph20%29.81 "Hg10 mi
3:53 PM106 °FSunny.9 mph21%29.83 "Hg10 mi
2:53 PM105 °FSunny.8 mph22%29.86 "Hg10 mi
1:53 PM106 °FSunny.8 mph23%29.88 "Hg10 mi
12:53 PM103 °FSunny.10 mph26%29.91 "Hg10 mi
11:53 AM101 °FSunny.6 mph28%29.93 "Hg10 mi
10:53 AM100 °FSunny.6 mph29%29.95 "Hg10 mi
9:53 AM97 °FSunny.7 mph32%29.95 "Hg10 mi
8:53 AM94 °FSunny.7 mph37%29.94 "Hg10 mi
Weather by CustomWeather, © 2014

See weather overviewHow to use our weather pages